Index of /observatory/weather/Observatory_weather

[ICO]NameLast modifiedSizeDescription

[DIR]Parent Directory  -  
[IMG]10MinAvgWindSpeed.gif17-Aug-2018 18:07 4.3K 
[TXT]2015.txt13-Mar-2018 12:42 11M 
[TXT]201705.txt21-Feb-2018 15:10 1.1M 
[TXT]201706.txt21-Feb-2018 15:10 351K 
[TXT]201707.txt21-Feb-2018 15:01 183K 
[IMG]AirDensity.gif17-Aug-2018 18:07 4.9K 
[IMG]Barometer.gif17-Aug-2018 18:07 5.7K 
[IMG]BarometerHistory.gif17-Aug-2018 18:07 9.6K 
[TXT]Current_Conditions.htm17-Aug-2018 18:07 2.7K 
[TXT]Current_Vantage_Pro.htm17-Aug-2018 18:07 13K 
[IMG]DCAMImage.jpg24-Jul-2018 13:16 249K 
[IMG]DewPoint.gif17-Aug-2018 18:07 5.4K 
[IMG]DewPointHistory.gif17-Aug-2018 18:07 8.9K 
[IMG]EMC.gif17-Aug-2018 18:07 4.5K 
[IMG]HeatIndex.gif17-Aug-2018 18:07 5.3K 
[IMG]HeatIndexHistory.gif17-Aug-2018 18:07 9.6K 
[IMG]HiWindSpeedHistory.gif17-Aug-2018 18:07 9.3K 
[IMG]InsideDewPoint.gif17-Aug-2018 18:07 4.4K 
[IMG]InsideDewPointHistory.gif17-Aug-2018 18:07 9.0K 
[IMG]InsideHeatIndex.gif17-Aug-2018 18:07 4.4K 
[IMG]InsideHeatIndexHistory.gif17-Aug-2018 18:07 9.0K 
[IMG]InsideHumidity.gif17-Aug-2018 18:07 5.5K 
[IMG]InsideHumidityHistory.gif17-Aug-2018 18:07 9.3K 
[IMG]InsideTemp.gif17-Aug-2018 18:07 5.4K 
[IMG]InsideTempHistory.gif17-Aug-2018 18:07 9.0K 
[IMG]MonthlyRain.gif17-Aug-2018 18:07 4.3K 
[TXT]Monthly_Vantage_Pro.htm17-Aug-2018 18:07 11K 
[TXT]Observatory_weather.htm17-Aug-2018 18:07 18K 
[IMG]OutsideHumidity.gif17-Aug-2018 18:07 5.5K 
[IMG]OutsideHumidityHistory.gif17-Aug-2018 18:07 9.0K 
[IMG]OutsideTemp.gif17-Aug-2018 18:07 5.4K 
[IMG]OutsideTempHistory.gif17-Aug-2018 18:07 9.0K 
[IMG]Rain.gif17-Aug-2018 18:07 4.5K 
[IMG]RainHistory.gif17-Aug-2018 18:07 8.3K 
[IMG]RainRate.gif17-Aug-2018 18:07 5.8K 
[IMG]RainRateHistory.gif17-Aug-2018 18:07 8.5K 
[IMG]RainStorm.gif17-Aug-2018 18:07 4.3K 
[IMG]ReceptionHistory.gif17-Aug-2018 18:07 8.9K 
[IMG]SchPhyAst_colour.jpg12-Sep-2013 17:33 24K 
[IMG]THW.gif17-Aug-2018 18:07 4.4K 
[TXT]Tag-List.htm17-Aug-2018 18:07 8.4K 
[IMG]WindChill.gif17-Aug-2018 18:07 4.5K 
[IMG]WindChillHistory.gif17-Aug-2018 18:07 8.8K 
[IMG]WindDirection.gif17-Aug-2018 18:07 4.6K 
[IMG]WindDirectionHistory.gif17-Aug-2018 18:07 8.8K 
[IMG]WindSpeed.gif17-Aug-2018 18:07 4.3K 
[IMG]WindSpeedHistory.gif17-Aug-2018 18:07 9.3K 
[IMG]YearlyRain.gif17-Aug-2018 18:07 4.3K 
[DIR]archive/21-Feb-2018 15:20 -  
[TXT]data.htm17-Aug-2018 18:07 351  
[VID]movie.avi13-Jul-2018 00:01 6.2M 
[IMG]obs_rollover.jpg16-Sep-2013 10:30 248K 
[IMG]quicklook_data_0.1h.png14-Dec-2017 17:15 38K 
[IMG]quicklook_data_1h.png14-Dec-2017 17:08 39K 
[IMG]quicklook_data_2h.png31-Jul-2018 15:57 189K 
[IMG]quicklook_data_12h.png31-Jul-2018 15:57 143K 
[IMG]quicklook_data_48h.png31-Jul-2018 15:57 78K 
[IMG]quicklook_data_96h.png31-Jul-2018 15:57 80K 
[TXT]radiation.txt24-Aug-2013 15:40 1.6M 
[TXT]radiation2012.txt17-Aug-2018 18:07 221K 
[DIR]reports/14-Feb-2018 13:55 -  
[IMG]test.png24-Nov-2017 13:58 77K 

Apache/2.2.14 (Ubuntu) Server at www.astro.gla.ac.uk Port 80